STARLINK-2153, 48009

Orbit data source: Space-Track

STARLINK-2153, 48009 is a payload satellite owned by SpaceX/Seattle (US) in LEO that was launched on Wed, 24 Mar 2021 UTC via an FALCON 9 launch vehicle from the Air Force Eastern Test Range (AFETR). Payload-class satellites include a variety of spacecraft equipped with specific instruments for various scientific and technological missions. These include communications satellites like Starlink; space stations such as the ISS; scientific satellites like the Hubble; Earth observation satellites from companies like Planet Labs, Umbra, and HawkEye 360; GPS; miniature CubeSats for education and research; and military/defense satellites.

Loading next visibility...
Identifier
48009, 2021-024AJ
Orbit
LEO
Country
Flag of USUS
Related business
Manufacturer
SpaceX/Seattle
Mission
Operational Commercial Communications
Bus & Motor
STARLINK, Unknown motor
Mass
260 kg wet, ~248 kg dry
Launch date (UTC)
2021-03-24 (5 years ago)
Launch vehicle
FALCON 9
Launch site
Air Force Eastern Test Range (AFETR)
Object type
Payload
Rocket body
Debris
Shape & HBR
Box + 1 Pan, 10.1 m
Radar Cross Section
13.562 m², Large (>1 m²)

Expand to show TLE details & history
Last TLE update: 8 hours ago

TLE from 8 hours ago
0 STARLINK-2153
1 48009U 21024AJ  25347.02547421 -.00000830  00000-0 -36859-4 0  9994
2 48009  53.0565 345.6690 0001674  91.9889 268.1292 15.06395760261722
Epoch: 2025-12-13T00:36Z
TLE epoch observation values (Epoch: 2025-12-13T00:36:40.971Z)
Latitude
-0.00001°
Longitude
-105.46039°
Altitude
548.142 km
Speed
7.589 km/s
True Right ascension
23h 02m 40s
True Declination
0° 00' 00"
Sunlit
Object was in daylight at epoch
Visualization orbit readout
Latitude
Unknown
Longitude
Unknown
Altitude
Unknown
Speed
Unknown
Apparent Right ascension
Unknown
Apparent Declination
Unknown
Sunlit
N/A
Visualization observer readout
Local Sidereal Time
07:34:23
Azimuth
Unknown
Elevation
Unknown
Doppler factor
Unknown
Orbital elements
Apogee altitude
548.654 km
Perigee altitude
546.336 km
Semi-major axis
6,925.632 km
Eccentricity
0.00017
Inclination
53.0565°
RAAN
345.669°
Arg. of periapsis
91.9889°
True anomaly
268.11003°
Mean anomaly
268.1292°
Eccentric anomaly
268.11961°
Mean motion
3.76577 °/min
Orbital period
95.6 mins
BSTAR
-0.000036859
Loading maneuver chart data...
Computing Atmospheric mass density...

Documentation

Showing up to 5 results
|